User: anonymous   Login
Location: Belfast
(54.5830°N, 5.9330°W)
Time: 02:52:15
(UTC+01:00)
Language:

Coronas F rocket - Orbit

View from above orbital plane
View from above orbital plane
View from above satellite
View from above satellite

Ground track
Ground track

The orbit data is extracted from the following two-line orbital elements,

1 26874U 01032B   16180.51447166  .00017873  00000-0  88982-4 0  9998
2 26874  82.4602 269.4550 0007938 151.4846 208.6858 15.81682585837439
Epoch (UTC): 28 June 2016 12:20:50
Eccentricity: 0.0007938
inclination: 82.4602°
perigee height: 320 km
apogee height: 331 km
right ascension of ascending node: 269.4550°
argument of perigee: 151.4846°
revolutions per day: 15.81682585
mean anomaly at epoch: 208.6858°
orbit number at epoch: 83743

The dashed part of the orbit path shows where the satellite is in the earth's shadow,  

DLR